User: anonymous
Location: Granada
(37.1830°N, 3.6000°W)
Time: 11:37:01
(UTC+02:00)
Language:

Iridium 70 - Orbit

View from above orbital plane
View from above orbital plane
View from above satellite
View from above satellite

Ground track
Ground track

The orbit data is extracted from the following two-line orbital elements,

1 25342U 98032A   14110.26284113  .00000542  00000-0  18651-3 0  7692
2 25342 086.3985 346.5281 0002126 106.1509 032.3522 14.34212700833701
Epoch (UTC): 20 April 2014 06:18:29
Eccentricity: 0.0002126
inclination: 86.3985°
perigee height: 776 km
apogee height: 779 km
right ascension of ascending node: 346.5281°
argument of perigee: 106.1509°
revolutions per day: 14.34212700
mean anomaly at epoch: 32.3522°
orbit number at epoch: 83370

The dashed part of the orbit path shows where the satellite is in the earth's shadow,  

DLR